Weather History for KXLL - October, 2012

Change the Weather History Date:

Thursday, October 18, 2012

  Actual Average (KABE) Record (KABE)
Temperature  
Mean Temperature 54 °F 52 °F  
Max Temperature 68 °F 63 °F 81 °F (1963)
Min Temperature 41 °F 40 °F 28 °F (1974)
Degree Days  
Heating Degree Days 10 13  
Month to date heating degree days 194  
Since 1 July heating degree days 309  
Cooling Degree Days 0 0  
Month to date cooling degree days 3  
Year to date cooling degree days 753  
Growing Degree Days 4 (Base 50)    
Moisture  
Dew Point 46 °F    
Average Humidity 72    
Maximum Humidity 93    
Minimum Humidity 43    
Precipitation  
Precipitation 0.00 in 0.12 in 1.52 in (1975)
Month to date precipitation 2.43  
Year to date precipitation 36.82  
Snow  
Snow 0.00 in 0.00 in 0.20 in (1972)
Month to date snowfall 0.0  
Since 1 July snowfall 0.0  
Since 1 September snowfall 0.0  
Snow Depth -    
Sea Level Pressure  
Sea Level Pressure 29.96 in    
Wind  
Wind Speed 5 mph (SE)    
Max Wind Speed 15 mph    
Max Gust Speed 23 mph    
Visibility 9 miles    
Events Rain    
T = Trace of Precipitation, MM = Missing Value Source: NWS Daily Summary

Daily Weather History Graph

Daily Weather History Graph

Search for Another Location

Airport or City:

Trip Planner

Search our weather history database for the weather conditions in past years. The results will help you decide how hot, cold, wet, or windy it might be!

Date:

Astronomy

Oct. 18, 2012 Rise Set
Actual Time 7:16 AM EDT 6:16 PM EDT
Civil Twilight 6:49 AM EDT 6:44 PM EDT
Nautical Twilight 6:17 AM EDT 7:15 PM EDT
Astronomical Twilight 5:45 AM EDT 7:47 PM EDT
Moon 10:57 AM EDT (10/18) 8:47 PM EDT (10/18)
Length of Visible Light 11h 55m
Length of Day
10h 59m
Waxing Crescent, 14% of the Moon is Illuminated
Oct 18
Waxing Crescent
Oct 21
First Quarter
Oct 29
Full
Nov 6
Last Quarter
Nov 13
New

Hourly Weather History & Observations

Time (EDT) Temp. Windchill Dew Point Humidity Pressure Visibility Wind Dir Wind Speed Gust Speed Precip Events Conditions
12:15 AM 50.0 °F - 41.0 °F 71% 29.98 in 10.0 mi South 5.8 mph - N/A   Clear
12:35 AM 48.2 °F - 41.0 °F 76% 29.98 in 10.0 mi South 4.6 mph - N/A   Clear
12:55 AM 46.4 °F - 41.0 °F 81% 29.98 in 10.0 mi Calm Calm - N/A   Clear
1:15 AM 44.6 °F 43.1 °F 41.0 °F 87% 29.98 in 10.0 mi NNW 3.5 mph - N/A   Clear
1:35 AM 44.6 °F - 41.0 °F 87% 29.99 in 10.0 mi Calm Calm - N/A   Clear
1:55 AM 46.4 °F - 41.0 °F 81% 29.99 in 10.0 mi Calm Calm - N/A   Clear
2:15 AM 44.6 °F - 41.0 °F 87% 29.98 in 10.0 mi Calm Calm - N/A   Clear
2:35 AM 44.6 °F - 41.0 °F 87% 29.97 in 10.0 mi Calm Calm - N/A   Clear
2:55 AM 44.6 °F - 41.0 °F 87% 29.97 in 10.0 mi Calm Calm - N/A   Clear
3:15 AM 42.8 °F 41.1 °F 39.2 °F 87% 29.97 in 10.0 mi NNE 3.5 mph - N/A   Clear
3:35 AM 42.8 °F - 41.0 °F 93% 29.97 in 10.0 mi Calm Calm - N/A   Clear
3:55 AM 42.8 °F - 41.0 °F 93% 29.98 in 10.0 mi Calm Calm - N/A   Clear
4:15 AM 41.0 °F - 37.4 °F 87% 29.98 in 5.0 mi Calm Calm - N/A   Clear
4:35 AM 42.8 °F 41.1 °F 39.2 °F 87% 29.99 in 7.0 mi NNE 3.5 mph - N/A   Clear
4:55 AM 42.8 °F - 39.2 °F 87% 29.98 in 7.0 mi Calm Calm - N/A   Clear
5:15 AM 42.8 °F - 39.2 °F 87% 29.98 in 7.0 mi Calm Calm - N/A   Clear
5:35 AM 42.8 °F - 39.2 °F 87% 29.98 in 7.0 mi Calm Calm - N/A   Clear
5:55 AM 42.8 °F - 39.2 °F 87% 29.98 in 7.0 mi Calm Calm - N/A   Clear
6:15 AM 41.0 °F - 37.4 °F 87% 29.99 in 7.0 mi Calm Calm - N/A   Clear
6:35 AM 41.0 °F - 39.2 °F 93% 29.99 in 7.0 mi Calm Calm - N/A   Clear
6:55 AM 41.0 °F 38.0 °F 39.2 °F 93% 30.00 in 7.0 mi NW 4.6 mph - N/A   Scattered Clouds
7:35 AM 41.0 °F 38.0 °F 39.2 °F 93% 30.01 in 5.0 mi NW 4.6 mph - N/A   Scattered Clouds
7:55 AM 42.8 °F 40.1 °F 41.0 °F 93% 30.01 in 5.0 mi NNW 4.6 mph - N/A   Mostly Cloudy
8:15 AM 42.8 °F 41.1 °F 41.0 °F 93% 30.00 in 5.0 mi North 3.5 mph - N/A   Mostly Cloudy
8:35 AM 46.4 °F - 44.6 °F 93% 30.00 in 5.0 mi Calm Calm - N/A   Overcast
8:55 AM 51.8 °F - 46.4 °F 82% 30.01 in 5.0 mi Calm Calm - N/A   Mostly Cloudy
9:15 AM 55.4 °F - 48.2 °F 77% 30.01 in 10.0 mi SSE 4.6 mph - N/A   Scattered Clouds
9:35 AM 55.4 °F - 48.2 °F 77% 30.01 in 10.0 mi South 8.1 mph - N/A   Clear
9:55 AM 57.2 °F - 48.2 °F 72% 30.01 in 10.0 mi South 9.2 mph - N/A   Clear
10:15 AM 57.2 °F - 48.2 °F 72% 30.01 in 10.0 mi SSE 9.2 mph - N/A   Clear
10:35 AM 59.0 °F - 50.0 °F 72% 30.01 in 10.0 mi South 11.5 mph - N/A   Clear
10:55 AM 59.0 °F - 50.0 °F 72% 30.02 in 10.0 mi South 8.1 mph - N/A   Scattered Clouds
11:15 AM 60.8 °F - 50.0 °F 68% 30.01 in 10.0 mi South 6.9 mph - N/A   Mostly Cloudy
11:35 AM 60.8 °F - 50.0 °F 68% 30.00 in 10.0 mi SE 9.2 mph - N/A   Scattered Clouds
11:55 AM 62.6 °F - 50.0 °F 63% 30.00 in 10.0 mi SSE 12.7 mph - N/A   Scattered Clouds
12:15 PM 62.6 °F - 50.0 °F 63% 29.99 in 10.0 mi SSE 8.1 mph 18.4 mph N/A   Scattered Clouds
12:35 PM 62.6 °F - 48.2 °F 59% 29.99 in 10.0 mi SSE 8.1 mph - N/A   Scattered Clouds
12:55 PM 64.4 °F - 46.4 °F 52% 29.99 in 10.0 mi South 9.2 mph - N/A   Scattered Clouds
1:15 PM 64.4 °F - 46.4 °F 52% 29.97 in 10.0 mi SE 11.5 mph - N/A   Scattered Clouds
1:35 PM 64.4 °F - 44.6 °F 49% 29.95 in 10.0 mi SE 13.8 mph 21.9 mph N/A   Scattered Clouds
1:55 PM 64.4 °F - 44.6 °F 49% 29.93 in 10.0 mi SSE 10.4 mph 23.0 mph N/A   Scattered Clouds
2:15 PM 64.4 °F - 44.6 °F 49% 29.94 in 10.0 mi SE 10.4 mph 16.1 mph N/A   Clear
2:35 PM 66.2 °F - 44.6 °F 46% 29.92 in 10.0 mi SE 11.5 mph 16.1 mph N/A   Clear
2:55 PM 68.0 °F - 44.6 °F 43% 29.92 in 10.0 mi SE 12.7 mph 17.3 mph N/A   Clear
3:15 PM 68.0 °F - 44.6 °F 43% 29.91 in 10.0 mi SSE 8.1 mph 17.3 mph N/A   Clear
3:35 PM 68.0 °F - 44.6 °F 43% 29.91 in 10.0 mi SE 9.2 mph 18.4 mph N/A   Clear
3:55 PM 66.2 °F - 44.6 °F 46% 29.91 in 10.0 mi SSE 10.4 mph - N/A   Clear
4:15 PM 64.4 °F - 44.6 °F 49% 29.91 in 10.0 mi SE 11.5 mph 19.6 mph N/A   Clear
4:35 PM 64.4 °F - 44.6 °F 49% 29.92 in 10.0 mi SSE 5.8 mph - N/A   Clear
4:55 PM 64.4 °F - 46.4 °F 52% 29.94 in 10.0 mi SE 8.1 mph - N/A   Clear
5:15 PM 64.4 °F - 46.4 °F 52% 29.93 in 10.0 mi ESE 8.1 mph - N/A   Mostly Cloudy
5:35 PM 64.4 °F - 46.4 °F 52% 29.93 in 10.0 mi SE 8.1 mph - N/A   Mostly Cloudy
5:55 PM 62.6 °F - 46.4 °F 55% 29.94 in 10.0 mi SSE 10.4 mph - N/A   Scattered Clouds
6:15 PM 62.6 °F - 46.4 °F 55% 29.94 in 10.0 mi SE 10.4 mph 16.1 mph N/A   Scattered Clouds
6:35 PM 62.6 °F - 46.4 °F 55% 29.94 in 10.0 mi ESE 10.4 mph 17.3 mph N/A   Scattered Clouds
7:15 PM 62.6 °F - 48.2 °F 59% 29.95 in 10.0 mi ESE 10.4 mph - N/A   Overcast
7:35 PM 60.8 °F - 50.0 °F 68% 29.96 in 10.0 mi ESE 5.8 mph - N/A   Overcast
7:55 PM 60.8 °F - 50.0 °F 68% 29.96 in 10.0 mi ESE 5.8 mph - N/A   Overcast
8:15 PM 60.8 °F - 51.8 °F 72% 29.96 in 10.0 mi ESE 6.9 mph - N/A   Overcast
8:35 PM 60.8 °F - 51.8 °F 72% 29.95 in 10.0 mi East 8.1 mph - N/A   Overcast
8:55 PM 60.8 °F - 51.8 °F 72% 29.94 in 10.0 mi East 8.1 mph - N/A   Mostly Cloudy
9:15 PM 60.8 °F - 53.6 °F 77% 29.94 in 10.0 mi East 8.1 mph - N/A   Overcast
9:35 PM 60.8 °F - 53.6 °F 77% 29.93 in 10.0 mi East 9.2 mph - N/A   Overcast
9:55 PM 60.8 °F - 53.6 °F 77% 29.93 in 10.0 mi East 5.8 mph - N/A   Overcast
10:15 PM 60.8 °F - 53.6 °F 77% 29.92 in 10.0 mi East 8.1 mph - N/A   Overcast
10:35 PM 60.8 °F - 55.4 °F 82% 29.91 in 10.0 mi East 8.1 mph - N/A   Overcast
11:15 PM 60.8 °F - 55.4 °F 82% 29.89 in 10.0 mi ESE 15.0 mph 18.4 mph N/A Rain Light Rain
11:35 PM 60.8 °F - 55.4 °F 82% 29.89 in 10.0 mi ESE 13.8 mph 20.7 mph N/A Rain Light Rain
11:55 PM 60.8 °F - 55.4 °F 82% 29.86 in 10.0 mi ESE 13.8 mph - N/A   Overcast